This is the latest recevied weather packets stored in our database for station/object OE6JUE. If no packets are shown the sender has not sent any weather packets the latest 10 day(s).
| Time | Temp. | Humidity | Pressure | Rain* | Wind** | Luminosity | Snow |
|---|---|---|---|---|---|---|---|
| 1788005914 | 24.44° C | 44% | 1019.5 hPa | 0 mm | - | - | - |
| 1788005615 | 23.89° C | 46% | 1019.5 hPa | 0 mm | - | - | - |
| 1788005315 | 23.89° C | 46% | 1019.5 hPa | 0 mm | - | - | - |
| 1788005015 | 23.89° C | 46% | 1019.5 hPa | 0 mm | - | - | - |
| 1788004714 | 24.44° C | 48% | 1019.6 hPa | 0 mm | - | - | - |
| 1788004415 | 25° C | 49% | 1019.5 hPa | 0 mm | - | - | - |
| 1788004114 | 24.44° C | 51% | 1019.6 hPa | 0 mm | - | - | - |
| 1788003814 | 23.89° C | 50% | 1019.7 hPa | 0 mm | - | - | - |
| 1788003514 | 23.89° C | 51% | 1019.8 hPa | 0 mm | - | - | - |
| 1788003214 | 23.89° C | 51% | 1019.7 hPa | 0 mm | - | - | - |
| 1788002915 | 23.89° C | 51% | 1019.7 hPa | 0 mm | - | - | - |
| 1788002615 | 23.33° C | 51% | 1019.7 hPa | 0 mm | - | - | - |
| 1788002314 | 23.33° C | 51% | 1019.7 hPa | 0 mm | - | - | - |
| 1788002015 | 23.33° C | 52% | 1019.6 hPa | 0 mm | - | - | - |
| 1788001714 | 23.33° C | 51% | 1019.7 hPa | 0 mm | - | - | - |
| 1788001415 | 23.33° C | 51% | 1019.8 hPa | 0 mm | - | - | - |
| 1788001115 | 23.89° C | 51% | 1019.6 hPa | 0 mm | - | - | - |
| 1788000814 | 24.44° C | 52% | 1019.8 hPa | 0 mm | - | - | - |
| 1788000514 | 24.44° C | 50% | 1019.7 hPa | 0 mm | - | - | - |
| 1788000214 | 25° C | 51% | 1019.7 hPa | 0 mm | - | - | - |
| 1787999915 | 24.44° C | 51% | 1019.5 hPa | 0 mm | - | - | - |
| 1787999614 | 24.44° C | 47% | 1019.4 hPa | 0 mm | - | - | - |
| 1787999319 | 24.44° C | 42% | 1019.5 hPa | 0 mm | - | - | - |
| 1787999014 | 24.44° C | 43% | 1019.6 hPa | 0 mm | - | - | - |
| 1787998725 | 25° C | 42% | 1019.6 hPa | 0 mm | - | - | - |
* Rain latest hour (hover to see other rain measurements)
** Current wind speed in m/s (hover to see current wind gust speed)